Location: ???? ?????
(30.0052°N, 31.2891°E)
Time: 21:56:34
(UTC+00:00)

Cosmos 1371 Rocket - Pass Details

Date: 26 May 2022
Orbit: 753 x 790 km, 74.0° (Epoch: 04 July)

Event Time Altitude Azimuth Distance (km) Brightness Sun altitude
Exits shadow 01:08:37 37° 195° (SSW) 1,151 4.5 -20.4°
Maximum altitude 01:10:42 89° 281° (WNW) 756 3.9 -20.0°
Drops below altitude 10° 01:15:52 10° 16° (NNE) 2,278 7.2 -19.2°
Sets 01:18:14 0° 16° (NNE) 3,208 8.2 -18.8°
